[[{"header":{"parameterUnit":"m.s-1","parameterCategory":1,"la1":30.2992,"la2":30.254,"lo1":-89.0895,"lo2":-89.0443,"dy":0.0025,"dx":0.0025,"nx":19,"ny":19,"refTime":"2026-05-04T09:00:00:Z","depth":0,"parameterNumber":2,"parameterNumberName":"U-component_of_WINDS"},"data":[0,0,0,-0.36,-0.3599,-0.3568,-0.3568,-0.3542,-0.3542,0,0,0,0,0,0,0,0,0,0,0,-0.3617,-0.3618,-0.36,-0.3599,-0.3568,-0.3568,-0.3542,-0.3542,0,0,0,0,0,0,0,0,0,0,0,-0.3617,-0.3618,-0.3618,-0.3599,-0.3568,-0.3568,-0.3542,-0.3561,0,0,0,0,0,0,0,0,0,0,-0.3588,-0.3613,-0.3617,-0.3618,-0.3599,-0.3568,-0.3568,-0.3561,-0.3559,-0.3562,0,-0.3566,0,-0.3554,-0.3541,-0.3541,0,0,0,-0.3593,-0.3614,-0.3598,-0.3618,-0.3599,-0.3568,-0.3581,-0.356,-0.3558,-0.3559,-0.3566,-0.3564,-0.3553,-0.3541,-0.3541,-0.3576,-0.3576,0,0,-0.3595,-0.3616,-0.36,-0.3598,-0.3603,-0.3582,-0.358,-0.3559,-0.3567,-0.3565,-0.3563,-0.3553,-0.3541,-0.3541,-0.3575,-0.3576,0,0,0,-0.3604,-0.3618,-0.3602,-0.3599,-0.3592,-0.3581,-0.3579,-0.3568,-0.3561,-0.3563,-0.3552,-0.3541,-0.354,-0.3575,-0.3575,-0.3619,0,0,0,-0.3605,-0.3623,-0.3603,-0.3616,-0.3593,-0.358,-0.3589,-0.3562,-0.3559,-0.3553,-0.3541,-0.354,-0.3574,-0.3575,-0.3616,-0.3635,0,0,0,-0.3617,-0.3624,-0.3623,-0.3617,-0.3604,-0.3579,-0.3571,-0.3561,-0.3553,-0.3541,-0.354,-0.3574,-0.3575,-0.3614,-0.3632,-0.3651,0,0,0,-0.3635,-0.3661,-0.3624,-0.3648,-0.3605,-0.3606,-0.3571,-0.3571,-0.3566,-0.3541,-0.3574,-0.3575,-0.3614,-0.363,-0.3649,-0.3671,-0.3682,0,0,-0.368,-0.3667,-0.368,-0.3646,-0.366,-0.361,-0.3629,-0.3604,-0.3584,-0.358,-0.358,-0.3617,-0.3632,-0.3651,-0.3737,-0.3746,0,0,0,-0.3702,-0.3711,-0.371,-0.3706,-0.3688,-0.3674,-0.3643,-0.3634,-0.3629,-0.3586,-0.3628,-0.3636,-0.3647,-0.3656,-0.3664,-0.3671,-0.3581,-0.358,-0.358,-0.3795,-0.3768,-0.3787,-0.3756,-0.3753,-0.3721,-0.3716,-0.3698,-0.3671,-0.3681,-0.368,-0.3736,-0.3748,-0.3753,-0.3762,-0.3689,-0.3689,-0.369,-0.369,-0.3858,-0.3868,-0.3831,-0.3837,-0.3808,-0.3812,-0.3783,-0.3764,-0.3764,-0.3734,-0.3742,-0.3712,-0.3764,-0.377,-0.3693,-0.3692,-0.3692,-0.3691,-0.3691,-0.3917,-0.3916,-0.3905,-0.3896,-0.3893,-0.386,-0.3862,-0.3835,-0.381,-0.3817,-0.3813,-0.3812,-0.3808,-0.3817,-0.3817,-0.3818,-0.3818,-0.3818,-0.3818,-0.3982,-0.3968,-0.3972,-0.3955,-0.3949,-0.3938,-0.3907,-0.39,-0.3886,-0.3866,-0.3866,-0.3838,-0.3774,-0.3759,-0.3821,-0.382,-0.382,-0.382,-0.3819,-0.4057,-0.4036,-0.4043,-0.4037,-0.4015,-0.4014,-0.3979,-0.3968,-0.3959,-0.3961,-0.3931,-0.3888,-0.3873,-0.3867,-0.3854,-0.3937,-0.3937,-0.3937,-0.3937,-0.4107,-0.4097,-0.4098,-0.409,-0.408,-0.4049,-0.4059,-0.4035,-0.4007,-0.4,-0.3984,-0.3965,-0.3959,-0.3948,-0.394,-0.3927,-0.4027,-0.4027,-0.4027,-0.4151,-0.4139,-0.4152,-0.4124,-0.4105,-0.4089,-0.4097,-0.409,-0.4054,-0.403,-0.3994,-0.399,-0.3958,-0.3949,-0.3925,-0.3913,-0.3889,0,0]},{"header":{"parameterUnit":"m.s-1","parameterCategory":1,"la1":30.2992,"la2":30.254,"lo1":-89.0895,"lo2":-89.0443,"dy":0.0025,"dx":0.0025,"nx":19,"ny":19,"refTime":"2026-05-04T09:00:00:Z","depth":0,"parameterNumber":3,"parameterNumberName":"V-component_of_WINDS"},"data":[0,0,0,3.7753,3.7752,3.7686,3.7685,3.7593,3.7592,0,0,0,0,0,0,0,0,0,0,0,3.7771,3.777,3.7753,3.7752,3.7686,3.7685,3.7593,3.7592,0,0,0,0,0,0,0,0,0,0,0,3.7771,3.7771,3.777,3.7751,3.7686,3.7685,3.7594,3.7646,0,0,0,0,0,0,0,0,0,0,3.7711,3.7726,3.7771,3.777,3.7751,3.7686,3.7685,3.7648,3.7642,3.7621,0,3.7604,0,3.7597,3.7586,3.7586,0,0,0,3.7752,3.7731,3.7715,3.777,3.775,3.7686,3.7716,3.7645,3.7638,3.7613,3.7603,3.76,3.7596,3.7585,3.7585,3.7468,3.7467,0,0,3.7756,3.7757,3.772,3.7711,3.7724,3.7718,3.7714,3.7641,3.7628,3.7603,3.7597,3.7594,3.7585,3.7584,3.7469,3.7468,0,0,0,3.7766,3.776,3.7746,3.7715,3.7703,3.7716,3.7711,3.7632,3.7627,3.7596,3.7593,3.7584,3.7583,3.7469,3.7468,3.7443,0,0,0,3.7768,3.7766,3.7748,3.7748,3.7705,3.7667,3.7703,3.7632,3.7624,3.7593,3.7584,3.7582,3.747,3.7469,3.7445,3.743,0,0,0,3.7776,3.7767,3.7757,3.7748,3.772,3.7668,3.766,3.7631,3.7622,3.7586,3.7582,3.747,3.7469,3.7447,3.7433,3.74,0,0,0,3.7784,3.7733,3.7757,3.7699,3.7721,3.7655,3.766,3.761,3.7576,3.7584,3.747,3.7468,3.7447,3.7435,3.7402,3.7372,3.7361,0,0,3.7721,3.7726,3.7692,3.7711,3.7642,3.7664,3.759,3.7556,3.7549,3.7495,3.7492,3.7444,3.7433,3.74,3.7294,3.7285,0,0,0,3.7672,3.7648,3.7629,3.7599,3.7574,3.755,3.7528,3.7516,3.747,3.7523,3.7424,3.7417,3.7398,3.7383,3.7375,3.7358,3.7462,3.7462,3.7462,3.7584,3.7582,3.7525,3.7515,3.7485,3.7464,3.7439,3.7418,3.7421,3.7398,3.7381,3.7318,3.7301,3.7295,3.7278,3.7366,3.7366,3.7366,3.7366,3.7492,3.7457,3.7466,3.7415,3.7412,3.7367,3.7344,3.7349,3.7306,3.733,3.7312,3.7338,3.7285,3.727,3.7364,3.7364,3.7365,3.7365,3.7365,3.7433,3.7416,3.7404,3.7361,3.7327,3.7317,3.7277,3.7274,3.7272,3.7255,3.7237,3.7237,3.7237,3.7247,3.7247,3.7246,3.7246,3.7246,3.7246,3.7377,3.7364,3.7332,3.7303,3.7284,3.7258,3.7237,3.7217,3.7193,3.7195,3.7195,3.72,3.7281,3.7302,3.7242,3.7243,3.7243,3.7244,3.7244,3.7283,3.7304,3.7254,3.7235,3.7201,3.7168,3.7167,3.7126,3.7109,3.7089,3.7099,3.716,3.7163,3.717,3.7186,3.7101,3.7101,3.71,3.71,3.7233,3.7236,3.7185,3.7155,3.7125,3.7119,3.706,3.7044,3.7029,3.7018,3.703,3.7052,3.7059,3.7058,3.7067,3.7082,3.6972,3.6972,3.6972,3.7175,3.7175,3.7127,3.7116,3.7089,3.7066,3.701,3.6973,3.6961,3.6967,3.7009,3.7014,3.705,3.7062,3.7068,3.7081,3.7109,0,0]}]]